Regional Weather Roundup
Issued by NWS

Home |  Current Version |  Previous Version |  Text Only |  Print | Product List |  Glossary On
Versions: 1 2 3 4 5 6 7 8 9 10 11 12 13 14 15 16 17 18 19 20 21 22 23 24 25 26 27 28
199
ASPQ40 PGUM 261210
RWRPQ
WEATHER ROUNDUP FOR THE MARIANAS AND MICRONESIA
NATIONAL WEATHER SERVICE TIYAN GU
1000 PM CHST SUN MAY 26 2024

GUZ001>004-261300-
MARIANA ISLANDS-

CITY           SKY/WX    TMP DP  RH WIND       PRES   REMARKS
GUAM AIRPORT   CLEAR     81  75  83 NE7       29.93S
ANDERSEN AFB   PTCLDY    81  75  83 NE12      29.94R
ROTA AIRPORT   NOT AVBL
TINIAN AP      NOT AVBL
SAIPAN AP      CLEAR     82  72  69 E6        29.94S

$$

PMZ161-261300-
REPUBLIC OF PALAU-

CITY           SKY/WX    TMP DP  RH WIND       PRES   REMARKS
KOROR AP       MOCLDY    79  77  94 CALM      29.84R
KOROR WSO      NOT AVBL

$$

PMZ171>174-261300-
FEDERATED STATES OF MICRONESIA-

CITY           SKY/WX    TMP DP  RH WIND       PRES   REMARKS
YAP AIRPORT    MOCLDY    82  79  89 VRB7      29.85R HX  93
CHUUK AP       CLOUDY    84  79  84 NE9       29.84R HX  96
POHNPEI AP     NOT AVBL
POHNPEI WSO    CLOUDY    84  79  84 E7        29.87  HX  96
KOSRAE AP      NOT AVBL

$$

PMZ181-261300-
REPUBLIC OF THE MARSHALL ISLANDS-

CITY           SKY/WX    TMP DP  RH WIND       PRES   REMARKS
KWAJALEIN AP   MOCLDY    82  77  83 NE17        N/A  HX  91
MAJURO AP      NOT AVBL
MAJURO WSO     PTCLDY    82  77  83 NE3       29.82S HX  91

$$